Temperature
9 11 10 10 10 11 11 12 12 11 11 11 12 12 12 11 11 11 10 10 10 9 9 10 10 10 10 10 10 10 10 10 10 10 10 10 10 10 10 10 10 10 10 10
11 10 10 10 10 10 11 11 11 11 11 11 11 11 12 11 11 11 11 10 10 9 9 9 10 10 10 10 10 10 10 10 10 10 10 10 9 9 10 10 10 10 10 10
10 10 9 9 10 10 11 11 11 11 11 11 11 12 12 11 10 10 10 10 10 9 9 9 9 10 9 9 10 10 10 10 10 9 9 9 9 9 9 9 9 9 9 9
9 9 9 10 10 10 11 10 10 11 12 12 11 12 13 12 11 11 10 10 10 9 9 9 9 9 9 9 9 9 9 9 9 9 9 9 9 9 9 9 9 9 9 9
9 9 9 9 9 10 10 10 10 11 11 11 11 12 14 12 12 12 11 10 10 9 9 9 9 10 9 9 9 9 9 9 9 9 9 9 9 9 9 9 9 9 9 9
9 8 8 9 9 9 9 10 10 11 12 12 11 12 13 13 13 13 12 11 10 9 9 9 10 10 9 9 9 9 9 9 9 9 9 9 9 9 8 8 8 8 8 8
10 9 9 8 10 10 10 11 11 12 12 12 10 11 13 13 12 11 11 10 9 9 9 9 9 10 9 9 9 9 9 9 9 9 9 9 8 8 8 8 8 8 8 8
10 10 9 9 9 10 10 11 12 12 13 13 10 11 13 11 10 9 9 9 9 9 9 9 10 10 9 9 9 9 9 9 8 8 8 8 8 8 8 8 8 8 8 7
11 10 9 8 8 9 10 11 10 11 11 12 13 12 12 11 10 10 9 9 9 8 8 9 9 9 9 9 9 9 9 9 8 8 8 8 8 8 8 8 7 7 7 7
10 9 9 8 9 9 9 10 10 10 11 13 13 13 13 11 11 10 10 9 9 8 8 9 9 9 9 9 9 9 9 8 8 8 8 8 8 7 7 7 7 7 7 7
9 10 9 9 9 10 9 9 10 11 11 12 13 14 13 12 11 11 10 9 8 8 8 8 9 9 9 9 9 8 8 8 8 8 8 7 7 7 7 7 7 7 7 6
8 9 9 9 8 8 9 9 10 11 11 10 12 13 11 10 10 10 10 9 8 8 8 8 9 9 9 8 8 8 8 8 8 7 7 7 7 7 7 6 6 6 6 6
8 9 10 10 9 8 8 8 8 9 10 10 11 13 10 9 9 9 9 9 8 8 8 8 8 8 8 8 8 8 8 8 7 7 7 7 7 6 6 6 6 6 6 6
8 9 10 11 11 10 9 8 8 8 9 11 11 12 12 11 10 10 9 8 8 8 8 8 8 8 8 8 8 7 7 7 7 7 7 6 6 6 6 6 6 6 6 6
8 8 8 8 8 8 8 8 8 8 10 11 12 11 12 12 11 10 9 8 7 7 7 8 8 8 8 7 7 7 7 7 7 6 6 6 6 6 6 6 6 5 5 5
7 8 7 7 7 7 7 8 8 8 9 9 10 10 11 10 9 8 8 7 7 7 7 8 8 7 7 7 7 7 7 6 6 6 6 6 6 5 5 5 5 5 5 5
7 7 7 8 7 7 9 9 8 8 8 9 9 11 10 9 9 8 8 7 7 7 7 7 7 7 7 7 7 6 6 6 6 6 5 5 5 5 5 5 5 5 4 4
7 7 7 7 8 8 11 8 8 8 8 8 9 10 9 9 8 7 7 7 7 7 7 7 7 7 7 6 6 6 6 6 5 5 5 5 5 4 4 4 4 4 4 4
6 7 7 7 8 9 10 8 7 7 9 9 8 9 8 6 6 7 7 8 8 8 7 7 7 7 6 6 6 6 5 5 5 5 4 4 4 4 4 4 4 3 3 3
4 5 7 7 7 9 11 8 6 7 10 9 8 8 7 6 9 10 8 8 7 7 7 7 7 6 6 6 5 5 5 5 4 4 4 4 4 4 3 3 3 3 3 3
4 5 5 6 7 9 9 6 6 9 11 8 7 7 6 7 9 8 7 7 7 7 7 6 6 6 6 5 5 5 5 4 4 4 4 3 3 3 3 3 3 3 2 2
6 6 5 6 6 8 7 6 8 10 8 7 7 7 6 7 7 7 7 7 7 6 6 6 6 5 5 5 5 4 4 4 4 4 3 3 3 3 3 2 2 2 2 2
6 7 7 7 9 8 6 7 7 7 7 7 7 7 7 7 7 7 6 6 6 6 6 5 5 5 5 4 4 4 4 4 4 3 3 3 3 3 2 2 2 2 2 1
5 4 5 5 7 7 6 6 7 7 7 7 7 7 7 6 6 6 6 6 5 5 5 5 5 4 4 4 4 4 3 3 3 3 3 3 2 2 2 2 2 1 1 1
6 4 4 5 7 6 6 7 7 7 7 7 7 6 6 6 6 6 6 5 5 5 5 4 4 4 4 4 3 3 3 3 3 3 2 2 2 2 2 1 1 1 1 0
5 5 5 7 8 7 8 8 7 7 7 7 6 6 6 6 6 5 5 5 5 4 4 4 4 4 3 3 3 3 3 2 2 2 2 2 2 1 1 1 1 1 0 0
Wind_Speed
1 1 1 1 2 3 3 3 2 1 1 3 4 3 2 3 6 6 6 7 7 6 5 5 5 5 4 4 4 4 4 4 3 3 2 2 1 1 1 2 2 2 2 2
2 1 2 1 1 2 3 3 2 0 1 1 3 3 2 4 6 6 7 7 7 6 6 6 5 5 5 5 5 4 4 4 3 2 2 1 1 1 1 1 1 2 2 2
1 2 2 1 1 2 1 3 3 1 0 1 2 2 3 3 3 4 5 6 6 7 7 7 6 6 5 5 5 4 4 4 3 3 3 3 2 1 1 1 0 0 1 1
1 2 1 1 1 2 1 2 2 2 2 0 1 2 4 4 4 5 5 5 6 6 6 6 7 7 7 6 5 5 5 4 4 3 3 3 2 2 1 1 1 1 1 0
1 2 1 1 2 2 1 1 1 1 1 1 0 2 3 3 5 7 7 6 5 6 6 7 7 7 6 6 5 5 5 5 4 4 3 3 3 2 1 1 1 2 1 1
1 1 2 2 2 1 1 1 1 1 1 2 1 2 3 4 6 6 6 7 6 5 5 6 6 5 5 5 5 5 6 5 5 5 5 4 4 3 2 3 2 2 2 2
2 1 2 1 1 1 1 0 1 1 1 2 1 3 4 2 3 4 5 6 6 6 6 6 6 6 6 6 6 6 6 6 5 5 5 5 5 4 4 4 3 3 3 2
2 1 2 2 1 1 1 1 1 1 2 1 1 4 2 1 1 2 3 4 5 5 5 5 6 6 6 6 6 6 6 6 5 6 5 5 5 4 4 5 4 4 3 3
2 1 1 2 2 1 1 0 2 0 1 2 3 3 4 1 1 2 3 4 4 5 5 5 5 5 5 5 6 6 6 6 5 5 5 5 5 5 4 4 4 4 4 3
2 2 1 2 1 2 2 1 1 1 2 2 3 4 3 3 4 4 4 4 4 4 4 5 4 5 5 4 4 4 5 5 4 4 4 4 4 4 4 4 4 4 4 4
1 1 1 1 1 1 1 1 1 1 2 2 3 2 1 3 4 5 5 4 4 4 5 5 4 4 4 4 4 4 4 3 4 4 4 4 4 4 4 4 4 4 4 4
0 1 2 2 0 1 2 2 3 3 2 2 3 3 2 2 3 5 5 4 4 4 4 4 4 4 4 4 3 3 3 3 3 3 3 3 3 3 4 4 4 4 4 4
2 2 2 1 2 2 3 3 4 2 2 4 4 4 2 2 3 4 5 5 4 4 4 4 4 4 4 4 3 2 2 2 2 2 3 3 3 3 4 4 4 4 4 4
2 3 5 5 3 2 5 6 7 6 5 6 9 10 6 6 5 5 5 5 5 5 5 5 4 4 4 3 3 3 2 2 2 2 3 3 3 4 4 4 4 4 4 4
3 4 5 8 8 7 10 11 11 13 12 10 10 11 12 8 7 6 6 6 6 6 6 6 5 5 4 4 3 3 2 2 2 2 3 3 3 3 3 3 3 4 4 4
2 4 3 5 6 7 12 15 16 16 15 16 16 16 12 8 6 6 7 7 8 7 7 7 6 6 5 5 4 3 3 2 2 3 3 3 3 3 3 3 3 4 4 4
3 3 3 5 4 7 10 11 14 10 12 11 14 11 5 5 6 7 7 8 8 8 7 7 7 6 5 5 5 4 3 3 3 3 3 3 3 3 3 3 4 4 4 5
5 4 3 4 5 8 4 1 6 10 11 14 13 11 8 8 7 6 7 8 8 8 7 7 6 6 5 4 4 3 3 3 3 3 3 3 3 3 4 4 5 5 5 5
6 6 4 3 6 9 7 3 5 7 8 10 14 13 8 4 4 6 7 7 7 7 6 6 5 5 4 4 4 3 3 3 3 4 4 3 3 4 4 5 5 5 5 5
3 5 5 5 6 7 3 3 3 3 6 4 8 8 5 5 4 4 2 5 5 5 4 4 4 4 5 4 4 4 4 4 4 4 4 4 4 4 5 5 5 5 5 6
5 6 8 9 8 9 5 4 6 4 3 1 5 6 7 7 5 3 1 3 4 4 4 4 5 5 4 4 4 4 4 5 4 3 4 4 4 5 5 5 5 5 5 6
9 8 8 7 8 9 5 8 7 4 2 2 4 5 7 7 4 3 3 3 4 4 4 4 5 4 4 4 5 5 5 4 3 3 4 5 5 4 4 5 5 5 5 6
9 9 6 10 9 3 6 7 5 3 4 4 5 5 6 6 6 6 6 5 5 5 5 4 5 4 4 4 5 5 4 3 3 4 5 5 5 5 5 5 6 5 5 5
7 6 7 9 12 11 11 12 11 9 9 8 7 6 6 8 8 7 7 6 6 6 5 5 5 5 4 4 5 5 4 4 4 5 5 5 5 5 5 5 5 5 5 6
8 7 8 12 13 11 11 11 12 10 10 9 8 8 9 9 9 8 7 7 6 6 5 6 6 6 6 5 5 5 5 4 5 6 5 5 5 5 5 5 5 6 7 7
10 11 11 12 11 9 9 7 7 8 10 10 9 9 8 9 9 8 8 7 6 6 6 6 7 7 6 5 6 5 5 5 5 5 5 4 4 4 5 5 6 8 10 11
Wind_Direction
37 139 162 226 234 251 227 215 207 238 280 208 207 233 223 185 185 183 182 178 175 173 169 164 161 164 164 158 155 155 153 149 148 146 147 144 124 103 81 58 50 56 61 61
141 46 317 283 231 214 213 213 210 109 37 216 209 248 226 192 196 197 194 190 182 178 177 176 173 171 175 173 168 167 171 162 166 166 146 131 125 137 88 78 48 32 46 52
131 353 326 174 173 206 236 223 218 192 109 89 199 216 186 180 193 203 209 203 195 192 191 188 186 184 185 186 181 181 182 174 176 165 142 137 147 163 169 180 199 345 22 50
27 343 15 127 342 277 239 300 238 205 185 159 264 224 209 195 206 211 208 201 202 202 199 194 191 189 192 193 187 187 185 183 183 178 179 183 194 202 207 211 210 211 223 214
30 4 21 0 328 308 307 323 206 199 190 176 218 228 222 186 209 212 210 205 205 203 199 195 193 190 191 190 188 190 189 188 188 189 195 201 210 217 215 237 227 219 210 215
39 329 337 325 323 281 190 146 120 142 223 230 260 241 233 204 216 214 210 209 206 197 194 191 186 185 183 184 188 193 194 197 197 196 204 212 217 216 228 241 242 234 230 222
28 67 17 325 8 68 354 180 143 183 223 250 60 254 254 242 232 236 225 213 204 195 189 186 183 182 182 185 189 194 199 203 203 204 209 215 224 227 237 246 246 241 239 237
348 359 11 358 347 303 340 305 303 247 234 269 228 244 263 5 294 255 229 212 196 191 189 191 192 188 187 189 191 194 201 205 205 208 212 216 223 231 241 247 252 249 249 257
325 307 32 351 331 288 178 139 347 321 256 251 239 263 276 196 218 189 174 179 186 188 187 188 189 190 189 189 192 197 201 205 207 211 217 219 222 231 241 249 252 254 250 255
310 283 304 319 232 55 351 137 193 227 247 255 248 242 235 206 203 191 187 184 181 184 186 186 186 188 188 189 190 195 203 209 213 214 219 226 225 233 243 246 247 252 255 253
281 272 300 264 242 274 156 177 217 221 276 267 269 248 175 210 213 207 206 200 191 186 186 187 187 187 187 185 186 190 197 208 215 216 220 228 231 231 241 246 252 254 256 251
218 257 270 264 2 317 259 244 221 259 255 250 274 277 116 239 257 229 216 206 197 189 187 185 184 181 182 183 184 189 197 208 217 217 219 230 237 233 239 250 255 254 254 253
189 230 284 223 189 201 229 218 214 236 247 229 242 260 126 278 259 229 223 214 202 193 187 185 185 184 182 182 182 186 198 208 216 219 225 233 239 239 245 254 256 253 254 258
206 239 243 265 298 249 243 233 217 212 225 240 240 260 262 263 257 241 229 223 215 207 200 195 194 191 186 185 184 183 185 196 212 225 236 245 252 254 256 261 262 258 257 260
221 253 251 266 273 265 259 250 228 224 233 245 256 260 268 269 264 254 236 225 218 213 209 205 201 196 193 192 194 194 195 201 214 228 240 251 258 259 260 263 266 265 263 264
224 251 266 272 265 265 265 254 241 238 240 245 259 268 269 270 264 251 237 225 222 218 215 212 208 203 204 204 204 203 206 210 223 236 246 254 257 260 264 270 273 272 270 268
202 217 252 275 298 291 268 248 222 218 221 225 239 250 254 249 249 243 235 228 228 225 220 216 213 211 211 210 209 213 214 217 227 239 248 251 255 262 268 271 269 269 270 269
205 202 241 283 291 253 268 114 210 223 239 229 242 255 253 257 267 258 243 234 231 226 222 218 214 211 207 205 208 213 213 217 228 241 249 252 254 263 270 268 267 271 272 270
221 212 227 247 268 276 279 225 194 214 260 232 236 248 254 263 267 253 235 229 231 226 221 216 209 203 198 197 196 198 211 220 231 242 251 256 258 264 269 270 274 277 274 274
190 219 228 230 250 259 279 139 165 203 265 225 218 231 220 189 245 264 204 215 223 218 207 199 189 187 190 191 187 198 213 227 239 249 258 263 262 263 268 273 277 275 272 274
177 197 219 231 245 265 269 147 159 220 294 156 205 212 195 209 255 315 242 219 218 213 204 194 190 194 197 189 192 207 220 235 246 253 258 262 263 264 269 273 272 272 272 274
195 193 205 208 227 252 175 158 202 259 340 221 225 221 219 234 264 268 248 232 217 213 208 202 200 201 195 192 201 219 236 245 247 250 255 261 265 266 265 268 270 268 268 274
216 213 211 212 230 282 183 213 243 271 263 262 254 246 235 244 254 252 248 240 230 221 214 208 207 206 205 205 212 231 244 243 245 249 255 263 268 267 263 266 270 272 269 269
230 225 231 249 260 261 255 254 256 252 255 257 255 251 239 247 254 250 245 239 233 224 217 209 208 215 219 218 226 239 243 237 241 250 257 261 266 270 268 264 262 263 265 267
233 199 227 253 268 277 263 250 253 254 253 256 255 251 246 248 251 247 244 238 231 225 216 210 214 222 228 227 235 239 236 233 242 252 258 261 262 267 271 267 262 261 262 262
222 218 227 251 255 251 270 268 259 251 251 249 250 252 245 239 244 244 243 237 229 224 217 215 222 229 235 237 242 243 236 233 240 250 257 260 263 266 269 276 279 252 252 265
Height
1512 1510 1508 1509 1509 1508 1506 1503 1502 1503 1505 1504 1501 1501 1502 1504 1504 1505 1506 1508 1509 1510 1512 1513 1514 1516 1517 1517 1519 1520 1521 1521 1522 1523 1523 1524 1524 1524 1524 1525 1524 1525 1525 1525
1511 1511 1512 1511 1511 1509 1507 1504 1502 1505 1505 1504 1502 1502 1501 1503 1503 1504 1505 1506 1508 1509 1510 1512 1513 1514 1515 1517 1517 1518 1519 1520 1521 1522 1522 1523 1523 1523 1523 1523 1523 1524 1524 1524
1510 1513 1512 1511 1510 1508 1506 1504 1503 1503 1505 1504 1503 1499 1500 1502 1504 1504 1505 1505 1507 1508 1509 1510 1512 1513 1514 1515 1516 1517 1519 1519 1520 1520 1520 1521 1522 1521 1522 1522 1522 1522 1522 1522
1513 1514 1512 1510 1510 1508 1505 1507 1506 1504 1501 1501 1503 1500 1495 1499 1501 1502 1503 1504 1505 1506 1508 1509 1510 1511 1512 1513 1515 1516 1517 1518 1518 1518 1519 1520 1520 1520 1520 1520 1521 1520 1520 1520
1514 1515 1513 1511 1511 1510 1508 1508 1507 1505 1502 1503 1503 1500 1492 1497 1497 1498 1500 1502 1503 1504 1505 1506 1507 1509 1510 1512 1513 1515 1516 1517 1517 1517 1518 1518 1518 1519 1519 1519 1519 1519 1519 1519
1516 1516 1515 1514 1513 1512 1511 1508 1506 1505 1502 1503 1505 1501 1492 1492 1492 1493 1497 1499 1501 1502 1503 1504 1506 1507 1509 1510 1511 1513 1514 1514 1515 1515 1516 1516 1517 1517 1517 1517 1517 1517 1517 1517
1513 1515 1515 1515 1511 1511 1509 1506 1505 1504 1503 1499 1508 1504 1493 1490 1493 1494 1495 1497 1499 1500 1501 1502 1504 1505 1506 1508 1509 1510 1512 1512 1513 1513 1514 1514 1515 1515 1515 1515 1515 1515 1514 1514
1513 1513 1515 1515 1513 1511 1510 1507 1506 1504 1499 1497 1505 1499 1489 1493 1494 1495 1496 1497 1497 1499 1499 1501 1502 1503 1505 1506 1507 1508 1509 1510 1510 1511 1512 1512 1512 1512 1512 1512 1512 1512 1511 1511
1512 1513 1516 1517 1516 1514 1509 1508 1511 1507 1506 1502 1494 1493 1489 1492 1493 1494 1495 1496 1496 1497 1498 1499 1500 1502 1503 1504 1505 1506 1507 1508 1508 1509 1509 1510 1509 1509 1509 1509 1509 1508 1508 1508
1516 1515 1515 1517 1516 1516 1514 1511 1510 1508 1504 1496 1490 1489 1486 1488 1489 1492 1493 1494 1495 1496 1496 1497 1499 1500 1501 1503 1504 1505 1505 1506 1506 1506 1506 1506 1506 1506 1506 1506 1506 1505 1504 1504
1518 1515 1515 1515 1513 1511 1514 1513 1510 1507 1505 1498 1490 1485 1484 1486 1487 1489 1491 1492 1493 1494 1495 1496 1497 1498 1500 1501 1502 1502 1503 1503 1503 1503 1503 1503 1503 1503 1503 1503 1502 1501 1501 1500
1519 1516 1513 1512 1516 1516 1514 1511 1509 1506 1505 1504 1496 1488 1486 1488 1488 1489 1490 1491 1492 1493 1494 1495 1496 1497 1498 1498 1499 1500 1500 1501 1501 1501 1501 1501 1500 1500 1500 1499 1498 1498 1497 1497
1519 1516 1511 1507 1514 1516 1513 1512 1512 1510 1507 1503 1497 1487 1487 1488 1488 1489 1489 1490 1490 1491 1492 1493 1494 1495 1495 1496 1497 1497 1498 1498 1498 1498 1498 1498 1497 1497 1496 1496 1495 1494 1493 1493
1519 1514 1511 1505 1502 1506 1508 1509 1510 1509 1505 1497 1492 1483 1483 1485 1486 1487 1488 1488 1489 1490 1490 1491 1492 1493 1493 1494 1495 1495 1495 1495 1495 1495 1495 1494 1494 1494 1493 1492 1491 1490 1490 1489
1518 1513 1511 1509 1509 1509 1506 1503 1505 1504 1497 1493 1483 1484 1479 1481 1483 1484 1485 1486 1487 1487 1488 1489 1490 1490 1491 1492 1492 1493 1493 1493 1493 1492 1492 1491 1491 1490 1489 1488 1487 1487 1486 1485
1516 1513 1513 1511 1508 1507 1504 1497 1497 1497 1495 1491 1487 1483 1478 1481 1482 1482 1483 1483 1483 1484 1485 1486 1487 1488 1489 1489 1490 1490 1490 1490 1490 1489 1489 1488 1487 1487 1486 1485 1484 1483 1482 1481
1514 1513 1511 1503 1505 1504 1491 1483 1486 1487 1485 1485 1482 1476 1477 1479 1479 1479 1479 1480 1480 1481 1482 1483 1484 1485 1486 1487 1487 1487 1487 1487 1487 1486 1486 1485 1484 1483 1482 1482 1481 1480 1478 1477
1512 1511 1510 1506 1503 1498 1476 1482 1481 1482 1479 1480 1477 1475 1476 1476 1477 1476 1476 1477 1477 1478 1479 1480 1481 1482 1483 1484 1484 1484 1484 1484 1483 1483 1482 1482 1481 1480 1479 1478 1477 1476 1475 1473
1511 1509 1507 1506 1496 1484 1476 1479 1481 1480 1474 1472 1473 1472 1474 1475 1475 1473 1472 1473 1474 1475 1476 1477 1478 1479 1480 1480 1481 1481 1481 1481 1480 1480 1479 1478 1478 1477 1476 1475 1474 1472 1471 1469
1512 1510 1507 1503 1498 1484 1472 1478 1479 1480 1471 1468 1469 1470 1472 1473 1471 1468 1469 1469 1471 1472 1473 1473 1475 1476 1477 1477 1478 1478 1478 1477 1477 1476 1476 1475 1474 1473 1472 1471 1470 1468 1467 1465
1508 1507 1505 1500 1494 1478 1473 1477 1480 1476 1465 1467 1467 1467 1469 1469 1468 1468 1467 1467 1468 1469 1470 1471 1472 1473 1473 1474 1474 1474 1474 1474 1474 1473 1472 1471 1470 1469 1468 1467 1466 1464 1462 1460
1494 1495 1496 1494 1492 1479 1472 1475 1473 1466 1466 1465 1465 1466 1466 1466 1466 1466 1466 1466 1466 1467 1467 1468 1469 1469 1470 1470 1471 1471 1471 1470 1470 1469 1468 1467 1467 1465 1464 1463 1461 1460 1458 1456
1487 1483 1480 1479 1472 1468 1469 1468 1466 1466 1465 1464 1464 1464 1464 1464 1464 1464 1464 1464 1464 1464 1465 1465 1465 1466 1467 1467 1467 1467 1467 1466 1466 1465 1464 1463 1462 1461 1460 1458 1456 1455 1453 1451
1482 1482 1480 1476 1467 1465 1465 1464 1463 1463 1462 1461 1462 1461 1461 1461 1461 1461 1460 1460 1460 1461 1461 1461 1462 1462 1463 1463 1463 1463 1463 1462 1462 1461 1460 1459 1458 1456 1455 1453 1452 1450 1448 1446
1473 1477 1475 1469 1463 1462 1458 1457 1457 1458 1457 1458 1458 1458 1457 1457 1457 1457 1456 1456 1456 1456 1457 1457 1458 1458 1459 1459 1459 1459 1459 1458 1457 1457 1456 1454 1453 1452 1450 1448 1447 1445 1443 1441
1467 1467 1465 1458 1456 1456 1454 1453 1454 1453 1453 1452 1452 1452 1452 1452 1452 1452 1452 1452 1452 1452 1452 1453 1454 1454 1455 1455 1455 1455 1454 1454 1453 1452 1451 1450 1448 1447 1445 1443 1441 1439 1438 1436